Tracking 30918 objects as of 2-Jul-2025
HD Live streaming from Space Station
objects crossing your sky now

MEASAT 3D

Track MEASAT 3D now!
MEASAT 3D is classified as:


NORAD ID: 52904
Int'l Code: 2022-067B
Perigee: 35,791.3 km
Apogee: 35,796.1 km
Inclination: 0.0 °
Period: 1,436.1 minutes
Semi major axis: 42164 km
RCS: Unknown
Launch date: June 22, 2022
Source: Malaysia (MALA)
Launch site: FRENCH GUIANA (FRGUI)
Your satellite tracking list
COSMOS 1948 (GLONASS)
Track 1 satellite(s)




NASA's NSSDC Master Catalog

Two Line Element Set (TLE):
1 52904U 22067B   25182.90574507 -.00000237  00000-0  00000-0 0  9995
2 52904   0.0322 328.3820 0000563  72.7424 296.6430  1.00271891 11130
Source of the keplerian elements: AFSPC